www.pogodaiklimat.ru

Погода и климат >> Архив погоды >> Германия >> Leuchtturm Alte Weser


ПОГОДА в Leuchtturm Alte Weser

  • Прогноз погоды в Leuchtturm Alte Weser
  • Монитор погоды в Leuchtturm Alte Weser
  • Климат города

АРХИВ ПОГОДЫ в Leuchtturm Alte Weser

Время (UTC), дата Ветер
(напр.,м/с)
 
Видим.   Явления Облачность Т
(С)
Тd
(С)
f
(%)
Тe
(С)
Тes
(С)
Комфортность P
(гПа)
Po
(гПа)
Тmin
(С)
Tmax
(С)
R
(мм)
R24
(мм)
S
(см)
02 14.10 ЮЗ 10 н/о н/о +15.6 +14.5 93 +13 +13 1020.8 1017.1
01 14.10 ЮЗ 11 н/о н/о +15.8 +14.5 92 +14 +14 1020.7 1017.0
03 14.10 ЮЗ 10 н/о н/о +15.5 +14.4 93 +13 +13 1020.9 1017.2
04 14.10 ЮЗ 10 н/о н/о +15.3 +14.4 94 +13 +13 1020.7 1017.0
05 14.10 ЮЗ 11
{13}
н/о н/о +15.3 +14.4 94 +13 +13 1021.0 1017.3
06 14.10 ЮЗ 10
{13}
н/о н/о +15.3 +14.5 95 +13 +13 1020.8 1017.1 +15.2 +16.2
08 14.10 ЮЗ 11
{13}
н/о н/о +14.9 +14.7 99 +12 +12 1021.9 1018.1
07 14.10 ЮЗ 11
{13}
н/о н/о +15.2 +14.5 96 +13 +13 1021.2 1017.5
09 14.10 ЮЗ 11
{14}
н/о н/о +15.1 +14.7 97 +12 +12 1022.1 1018.4
10 14.10 ЮЗ 11
{14}
н/о н/о +15.4 +14.7 96 +13 +13 1022.3 1018.6
11 14.10 ЮЗ 10 н/о н/о +15.9 +14.7 93 +14 +14 1022.6 1018.9
12 14.10 ЮЗ 10
{14}
н/о н/о +15.8 +14.8 94 +14 +14 1022.5 1018.8
14 14.10 ЮЗ 8 н/о н/о +16.0 +14.6 91 +14 +14 1022.7 1018.9
13 14.10 ЮЗ 9 н/о н/о +16.0 +14.8 93 +14 +14 1022.4 1018.7
15 14.10 ЮЗ 8 н/о н/о +15.9 +14.9 94 +14 +14 1022.9 1019.1
16 14.10 ЮЗ 8 н/о н/о +16.3 +14.8 91 +15 +15 1022.9 1019.2
17 14.10 ЮЗ 8 н/о н/о +16.4 +14.9 91 +15 +15 1023.0 1019.3
18 14.10 ЮЗ 9 н/о н/о +16.1 +14.7 91 +14 +14 1023.7 1020.0 +14.8 +16.6
20 14.10 ЮЗ 10 н/о н/о +15.6 +14.1 91 +13 +13 1023.5 1019.8
19 14.10 ЮЗ 8 н/о н/о +15.8 +14.4 91 +14 +14 1024.2 1020.4
21 14.10 ЮЗ 8 н/о н/о +15.3 +13.9 91 +13 +13 1023.7 1020.0
22 14.10 ЮЗ 8 н/о н/о +14.9 +13.9 94 +13 +13 1023.8 1020.1
23 14.10 ЮЗ 8 н/о н/о +14.5 +13.8 96 +12 +12 1023.9 1020.1
00 15.10 ЮЗ 9 н/о н/о +14.2 +13.7 97 +11 +11 1023.8 1020.0
02 15.10 ЮЗ 6 н/о н/о +13.8 +13.6 99 +12 +12 1023.6 1019.8
01 15.10 ЮЗ 7 н/о н/о +13.9 +13.7 99 +11 +11 1023.6 1019.9
03 15.10 ЮЗ 6 н/о н/о +13.8 +13.9 100 +12 +12 1023.3 1019.6
04 15.10 ЮЗ 7 н/о н/о +13.6 +13.6 100 +11 +11 1023.3 1019.5
05 15.10 ЮЗ 6 н/о н/о +13.8 +13.7 99 +12 +12 1023.2 1019.5
06 15.10 Ю 6 н/о н/о +13.2 +12.9 98 +11 +11 1023.0 1019.2 +13.3 +16.4
08 15.10 Ю 6 н/о н/о +13.5 +13.5 100 +11 +11 1022.7 1018.9
07 15.10 Ю 6 н/о н/о +13.5 +13.4 99 +11 +11 1022.9 1019.1
09 15.10 Ю 7 н/о н/о +13.6 +13.0 96 +11 +11 1022.4 1018.6
10 15.10 Ю 7 н/о н/о +14.1 +13.0 93 +12 +12 1022.1 1018.3
11 15.10 Ю 7 н/о н/о +15.3 +13.8 91 +13 +13 1021.5 1017.8
12 15.10 Ю 8 н/о н/о +17.1 +15.1 88 +16 +16 1020.7 1017.0
14 15.10 Ю 8 н/о н/о +19.1 +14.3 74 +20 +20 1019.4 1015.7
13 15.10 Ю 7 н/о н/о +18.2 +15.3 83 +18 +18 1020.0 1016.3
15 15.10 Ю 8 н/о н/о +19.4 +14.3 72 +20 +20 1018.9 1015.2
16 15.10 Ю 8 н/о н/о +19.5 +13.8 70 +20 +20 1018.5 1014.8
17 15.10 Ю 9 н/о н/о +18.9 +14.2 74 +19 +19 1018.5 1014.8
18 15.10 Ю 11 н/о н/о +17.6 +14.1 80 +16 +16 1018.2 1014.5 +13.2 +19.8
20 15.10 Ю 9 н/о н/о +16.4 +13.6 84 +15 +15 1018.0 1014.3
19 15.10 Ю 10 н/о н/о +17.1 +13.8 81 +16 +16 1018.2 1014.5
21 15.10 ЮЗ 9 н/о н/о +16.9 +13.3 79 +15 +15 1018.6 1014.9
22 15.10 ЮЗ 9 н/о н/о +16.9 +12.8 77 +15 +15 1018.6 1014.9
23 15.10 ЮЗ 10 н/о н/о +16.9 +12.7 76 +15 +15 1018.1 1014.4
00 16.10 ЮЗ 10 н/о н/о +16.1 +12.7 80 +14 +14 1018.3 1014.6
02 16.10 ЮЗ 9 н/о н/о +15.5 +12.8 84 +13 +13 1018.1 1014.4
01 16.10 ЮЗ 9 н/о н/о +15.9 +12.8 82 +14 +14 1018.3 1014.6
03 16.10 ЮЗ 8 н/о н/о +15.0 +12.8 87 +13 +13 1018.2 1014.5
04 16.10 ЮЗ 8 н/о н/о +14.7 +13.0 90 +12 +12 1018.5 1014.8
05 16.10 ЮЗ 7 н/о н/о +14.3 +13.1 92 +12 +12 1018.5 1014.7
06 16.10 Ю 7 н/о н/о +14.1 +13.2 94 +12 +12 1018.6 1014.8 +14.0 +19.0
08 16.10 Ю 7 н/о н/о +14.0 +13.1 94 +12 +12 1018.9 1015.2
07 16.10 Ю 7 н/о н/о +14.0 +13.1 94 +12 +12 1018.7 1015.0
09 16.10 ЮЗ 7 н/о н/о +14.2 +13.2 94 +12 +12 1019.3 1015.5
10 16.10 Ю 5 н/о н/о +15.0 +13.4 90 +14 +14 1020.0 1016.3
11 16.10 ЮЗ 6 н/о н/о +16.2 +14.0 87 +15 +15 1020.0 1016.3
12 16.10 ЮЗ 6 н/о н/о +17.8 +14.6 82 +17 +17 1019.3 1015.6
14 16.10 ЮЗ 4 н/о н/о +18.9 +15.1 79 +20 +20 1018.5 1014.9
13 16.10 ЮЗ 6 н/о н/о +18.7 +14.9 79 +19 +19 1019.1 1015.4
15 16.10 Ю 6 н/о н/о +18.5 +15.4 82 +19 +19 1018.2 1014.5
16 16.10 Ю 6 н/о н/о +19.8 +15.8 78 +22 +22 комфорт 1017.9 1014.2
17 16.10 Ю 9 н/о н/о +19.5 +16.0 80 +21 +21 комфорт 1017.5 1013.9
18 16.10 Ю 9 н/о н/о +19.1 +15.6 80 +20 +20 1017.2 1013.5 +14.0 +20.4
20 16.10 Ю 10 н/о н/о +18.3 +15.2 82 +18 +18 1016.6 1012.9
19 16.10 Ю 7 н/о н/о +17.9 +15.6 86 +17 +17 1017.2 1013.5
21 16.10 Ю 9 н/о н/о +17.6 +14.8 84 +16 +16 1016.7 1013.1
22 16.10 Ю 11 н/о н/о +18.5 +14.8 79 +18 +18 1016.5 1012.8
23 16.10 ЮЗ 10 н/о н/о +18.7 +14.5 77 +19 +19 1016.8 1013.1
00 17.10 ЮЗ 10 н/о н/о +18.1 +14.3 78 +17 +17 1017.0 1013.4
02 17.10 ЮЗ 10 н/о н/о +17.1 +14.5 85 +16 +16 1017.0 1013.4
01 17.10 ЮЗ 8 н/о н/о +17.3 +14.4 83 +16 +16 1017.1 1013.4
03 17.10 ЮЗ 10 н/о н/о +16.6 +13.6 82 +15 +15 1017.2 1013.5
04 17.10 ЮЗ 11
{14}
н/о н/о +16.4 +10.8 69 +14 +14 1016.7 1013.0
05 17.10 ЮЗ 11
{14}
н/о н/о +15.4 +10.4 72 +13 +13 1017.2 1013.5
06 17.10 ЮЗ 11
{14}
н/о н/о +14.7 +10.9 78 +12 +12 1017.5 1013.8 +14.7 +20.4
08 17.10 ЮЗ 11
{13}
н/о н/о +14.0 +11.0 82 +11 +11 1018.1 1014.3
07 17.10 ЮЗ 11 н/о н/о +14.3 +11.1 81 +11 +11 1017.8 1014.1
09 17.10 ЮЗ 11
{14}
н/о н/о +13.9 +10.9 82 +11 +11 1018.3 1014.5
10 17.10 ЮЗ 12
{14}
н/о н/о +14.1 +10.6 79 +11 +11 1017.9 1014.2
11 17.10 ЮЗ 13
{15}
н/о н/о +14.4 +10.4 77 +11 +11 1018.0 1014.3
12 17.10 ЮЗ 11
{15}
н/о н/о +14.6 +10.6 77 +12 +12 1017.7 1014.0
14 17.10 ЮЗ 10
{13}
н/о н/о +14.9 +9.9 72 +12 +12 1017.1 1013.4
13 17.10 ЮЗ 11
{13}
н/о н/о +14.7 +10.4 75 +12 +12 1017.3 1013.6
15 17.10 ЮЗ 11
{14}
н/о н/о +14.7 +10.2 74 +12 +12 1016.8 1013.1
16 17.10 ЮЗ 10
{13}
н/о н/о +14.4 +10.6 78 +12 +12 1016.5 1012.8
17 17.10 ЮЗ 10
{13}
н/о н/о +13.8 +11.5 86 +11 +11 1016.1 1012.4
18 17.10 ЮЗ 9
{14}
н/о н/о +13.4 +11.6 89 +10 +10 1016.2 1012.5 +13.4 +15.5
20 17.10 ЮЗ 9 н/о н/о +13.2 +11.0 87 +10 +10 1016.4 1012.7
19 17.10 ЮЗ 10 н/о н/о +13.3 +11.3 88 +10 +10 1016.2 1012.5
21 17.10 ЮЗ 10 н/о н/о +13.0 +10.7 86 +10 +10 1016.2 1012.5
22 17.10 ЮЗ 10 н/о н/о +12.5 +10.6 88 +9 +9 1016.1 1012.3
23 17.10 ЮЗ 9 н/о н/о +12.4 +10.7 89 +9 +9 1016.1 1012.4
00 18.10 ЮЗ 8 н/о н/о +12.5 +10.8 89 +9 +9 1015.9 1012.2
02 18.10 ЮЗ 7 н/о н/о +12.0 +10.7 92 +9 +9 1015.5 1011.8
01 18.10 ЮЗ 8 н/о н/о +13.0 +10.8 86 +10 +10 1015.7 1011.9
03 18.10 ЮЗ 6 н/о н/о +11.5 +10.5 94 +8 +8 1015.1 1011.3
04 18.10 ЮЗ 6 н/о н/о +11.7 +10.7 94 +9 +9 1015.1 1011.4
05 18.10 ЮЗ 5 н/о н/о +11.3 +10.5 95 +8 +8 1014.9 1011.2
06 18.10 ЮЗ 5 н/о н/о +11.5 +10.7 95 +9 +9 1014.9 1011.1 +11.2 +13.8
08 18.10 ЮЗ 3 н/о н/о +12.1 +11.0 93 +10 +10 1015.0 1011.2
07 18.10 ЮЗ 5 н/о н/о +12.0 +10.8 92 +9 +9 1015.1 1011.3
09 18.10 ЮЗ 2 н/о н/о +12.6 +11.2 91 +12 +12 1015.1 1011.4
10 18.10 З 1 н/о н/о +12.9 +11.0 88 +13 +13 1015.1 1011.4
11 18.10 Ю 2 н/о н/о +14.0 +11.7 86 +13 +13 1015.1 1011.3
12 18.10 Ю 2 н/о н/о +13.6 +11.5 87 +13 +13 1014.7 1011.0
14 18.10 В 1 н/о н/о +14.0 +11.8 87 +14 +14 1014.1 1010.4
13 18.10 ЮВ 2 н/о н/о +13.5 +11.3 87 +13 +13 1014.4 1010.7
15 18.10 В 3 н/о н/о +13.8 +11.9 88 +13 +13 1013.8 1010.1
16 18.10 СВ 4 н/о н/о +13.6 +12.5 93 +12 +12 1013.8 1010.1
17 18.10 СВ 5 н/о н/о +13.6 +12.0 90 +12 +12 1013.7 1010.0
18 18.10 В 5 н/о н/о +13.7 +12.0 89 +12 +12 1013.8 1010.1 +11.2 +14.4
20 18.10 В 6 н/о н/о +13.5 +12.0 91 +11 +11 1013.6 1009.8
19 18.10 В 5 н/о н/о +13.5 +12.1 91 +11 +11 1013.8 1010.1
21 18.10 В 6 н/о н/о +13.7 +11.4 86 +12 +12 1013.8 1010.0
22 18.10 ЮВ 6 н/о н/о +13.6 +11.4 87 +11 +11 1013.0 1009.3
23 18.10 В 5 н/о н/о +13.4 +11.7 89 +11 +11 1013.0 1009.2
00 19.10 В 5 н/о н/о +13.1 +11.7 91 +11 +11 1012.7 1009.0
02 19.10 В 6 н/о н/о +12.6 +11.5 93 +10 +10 1012.6 1008.9
01 19.10 В 5 н/о н/о +12.8 +11.6 92 +11 +11 1012.7 1009.0
03 19.10 В 7 н/о н/о +12.2 +11.3 94 +9 +9 1012.3 1008.5
04 19.10 ЮВ 7 н/о н/о +12.3 +11.3 94 +9 +9 1012.4 1008.7
05 19.10 ЮВ 7 н/о н/о +12.3 +11.2 93 +9 +9 1012.2 1008.5
06 19.10 ЮВ 7 н/о н/о +12.5 +11.6 94 +10 +10 1012.0 1008.2 +12.1 +13.7
08 19.10 ЮВ 6 н/о н/о +12.3 +12.0 98 +9 +9 1012.4 1008.6
07 19.10 ЮВ 6 н/о н/о +12.2 +11.7 97 +9 +9 1012.2 1008.4
09 19.10 ЮВ 7 н/о н/о +12.2 +12.2 100 +9 +9 1012.2 1008.5
10 19.10 ЮВ 7 н/о н/о +12.3 +12.2 99 +9 +9 1012.2 1008.5
11 19.10 Ю 7 н/о н/о +12.9 +12.1 95 +10 +10 1012.2 1008.5
12 19.10 ЮВ 6 н/о н/о +14.4 +12.4 88 +12 +12 1011.7 1008.0
14 19.10 ЮВ 6 н/о н/о +15.4 +12.6 83 +14 +14 1010.8 1007.1
13 19.10 ЮВ 7 н/о н/о +15.0 +12.3 84 +13 +13 1011.3 1007.6
15 19.10 ЮВ 7 н/о н/о +16.0 +12.9 82 +14 +14 1010.2 1006.5
16 19.10 В 9 н/о н/о +15.6 +13.2 86 +14 +14 1009.8 1006.1
17 19.10 В 8 н/о н/о +15.1 +13.5 90 +13 +13 1009.8 1006.1
18 19.10 В 9 н/о н/о +14.6 +13.4 93 +12 +12 1009.6 1005.9 +11.9 +16.2
20 19.10 ЮВ 8 н/о н/о +13.9 +13.0 94 +11 +11 1009.4 1005.7
19 19.10 ЮВ 9 н/о н/о +14.2 +13.1 93 +12 +12 1009.5 1005.8
21 19.10 ЮВ 8 н/о н/о +13.6 +12.8 95 +11 +11 1009.5 1005.8
22 19.10 ЮВ 8 н/о н/о +13.6 +12.9 96 +11 +11 1008.9 1005.2
23 19.10 ЮВ 8 н/о н/о +13.6 +12.7 94 +11 +11 1008.5 1004.8
00 20.10 ЮВ 8 н/о н/о +13.4 +12.5 94 +11 +11 1008.5 1004.8
02 20.10 ЮВ 9 н/о н/о +13.0 +12.1 94 +10 +10 1008.0 1004.3
01 20.10 ЮВ 9 н/о н/о +13.2 +12.4 95 +10 +10 1008.5 1004.8
03 20.10 ЮВ 10 н/о н/о +13.2 +12.1 93 +10 +10 1007.6 1003.9
04 20.10 ЮВ 10 н/о н/о +13.7 +12.2 91 +11 +11 1007.3 1003.6
05 20.10 ЮВ 9 н/о н/о +13.8 +12.0 89 +11 +11 1007.1 1003.4
06 20.10 ЮВ 10
{13}
н/о н/о +14.3 +11.9 85 +12 +12 1006.4 1002.7 +12.9 +15.1
08 20.10 Ю 10
{14}
н/о н/о +13.6 +12.0 90 +11 +11 1007.3 1003.6
07 20.10 ЮВ 11
{13}
н/о н/о +14.4 +11.7 84 +12 +12 1006.6 1002.9
09 20.10 ЮВ 11
{14}
н/о н/о +14.7 +11.8 83 +12 +12 1006.9 1003.2
10 20.10 Ю 12
{16}
н/о н/о +14.5 +12.3 87 +12 +12 1006.6 1003.0
11 20.10 Ю 13
{16}
н/о н/о +14.6 +13.0 90 +12 +12 1006.5 1002.8
12 20.10 Ю 12
{16}
н/о н/о +14.7 +13.0 90 +12 +12 1006.5 1002.8
14 20.10 Ю 11
{13}
н/о н/о +14.8 +13.0 89 +12 +12 1006.3 1002.6
13 20.10 Ю 10
{13}
н/о н/о +14.7 +13.1 90 +12 +12 1006.4 1002.7
15 20.10 Ю 8
{16}
н/о н/о +15.1 +12.7 86 +13 +13 1006.5 1002.8
16 20.10 ЮЗ 13
{15}
н/о н/о +14.3 +10.2 76 +11 +11 1007.0 1003.3
17 20.10 Ю 13
{15}
н/о н/о +13.3 +11.0 86 +10 +10 1007.2 1003.5
18 20.10 Ю 11
{16}
н/о н/о +12.9 +11.3 90 +9 +9 1007.8 1004.1 +12.9 +15.6
20 20.10 Ю 10
{13}
н/о н/о +12.8 +11.4 91 +9 +9 1008.4 1004.7
19 20.10 Ю 10
{14}
н/о н/о +13.0 +11.5 91 +10 +10 1008.2 1004.4
21 20.10 Ю 10
{14}
н/о н/о +12.9 +11.6 92 +9 +9 1008.6 1004.9
22 20.10 ЮЗ 12
{14}
н/о н/о +12.8 +10.9 88 +9 +9 1008.6 1004.9
23 20.10 ЮЗ 11
{14}
н/о н/о +12.4 +10.8 90 +9 +9 1008.8 1005.1

 

Местоположение метеостанции Leuchtturm Alte Weser (Германия): широта 53.87 долгота 8.13 высота над уровнем моря 32 м.

В архиве по умолчанию представлена погода в Leuchtturm Alte Weser за последнюю неделю. Архивные данные за месяц целиком и за предыдущие месяцы, начиная с января 2011 года, Вы можете получить, выбрав интересующий диапазон дат из раскрывающегося списка и нажав кнопку "Ввод!".

Внимание! Время в таблицах - всемирное. Для получения местного времени необходимо прибавить поправку, которая в Leuchtturm Alte Weser равна 1 ч.

Смотрите также архив погоды в соседних городах и на ближайших метеорологических станциях:

Погода в Nordholz (Германия) (37 км)
Погода в Cuxhaven (Германия) (37 км)
Погода в Helgoland (Германия) (38 км)
Погода в Wittmundhaven (Германия) (47 км)
Погода в Bremerhaven (Германия) (48 км)
Погода в Ufs Deutsche Bucht (Германия) (57 км)
Погода в St Peter-Ording (Германия) (60 км)
Погода в Elpersbuettel (Германия) (62 км)
Погода в Norderney Island (Германия) (67 км)
Погода в Bremervoerde (Германия) (80 км)

Пояснения к столбцам:

Ветер - указаны скорость ветра в м/с - средняя за 10 мин, порывы в срок и между сроками (в фигурных скобках) и направление, откуда дует ветер: С - северный, СВ - северо-восточный, В - восточный, ЮВ - юго-восточный, Ю - южный, ЮЗ - юго-западный, З - западный, СЗ - северо-западный.
Видимость - горизонтальная дальность видимости в метрах или километрах. При видимости от 1 до 10 км при отсутствии осадков обычно наблюдается дымка, при ухудшении видимости до 1 км и менее - туман. В сухую погоду видимость может ухудшаться дымом, пылью или мглою.
Явления - указаны атмосферные явления, наблюдавшиеся в срок или в последний час перед сроком; фигурными скобками обозначены явления, наблюдавшиеся между сроками (за 1-3 часа до срока); квадратными скобками обозначены град или гололедные отложения с указанием их диаметра в мм.
Облачность - указаны через наклонную черту общая и нижняя облачность в баллах и высота нижней границы облаков в метрах; квадратными скобками обозначены формы облаков: Ci - перистые, Cs - перисто-слоистые, Cc - перисто-кучевые, Ac - высококучевые, As - высокослоистые, Sc - слоисто-кучевые, Ns - слоисто-дождевые, Cu - кучевые, Cb - кучево-дождевые. Подробнее классификацию облаков см. в Атласе облаков (PDF).
T - Температура воздуха - температура, измеренная на высоте 2 м над землей.
Td - Температура точки росы - температура, при понижении до которой содержащийся в воздухе водяной пар достигнет насыщения.
f - Относительная влажность воздуха - влажноcть воздуха, измеренная на высоте 2 м над землей.
Te - Эффективная температура - температура, которую ощущает одетый по сезону человек в тени. Характеристика душности погоды. При расчете учитывается влияние влажности воздуха и скорости ветра на теплоощущения человека.
Tes - Эффективная температура на солнце - температура, которую ощущает человек, с поправкой на солнечный нагрев. Характеристика знойности погоды. Зависит от высоты солнца над горизонтом, облачности и скорости ветра. Ночью, в пасмурную погоду, а также при ветре 12 м/с и более поправка равна нулю.
P - Атмосферное давление - приведенное к уровню моря атмосферное давление.
Po - Атмосферное давление - измеренное на уровне метеостанции атмосферное давление.
Tmin - Минимальная температура - минимум температуры воздуха на высоте 2 м над землей.
Tmax - Максимальная температура - максимум температуры воздуха на высоте 2 м над землей.
R - Количество осадков - Количество выпавших осадков за период времени, мм. При наведении курсора мыши на число - период времени, за который выпало указанное количество осадков.
R24 - Количество осадков - Количество выпавших осадков за 24 часа, мм.
S - Снежный покров - Высота снежного покрова, см. При наведении курсора мыши на число - состояние снежного покрова и степень покрытия местности в баллах.